Location: Koussan�
(15.2012°N, 12.5548°W)
Time: 16:23:46
(UTC+00:00)

Cosmos 1656 - Pass Details

Date: 20 October 2020
Orbit: 797 x 851 km, 71.1° (Epoch: 29 November)

Event Time Altitude Azimuth Distance (km) Brightness Sun altitude
Rises 19:26:20 0° 188° (S) 3,296 7.0 -15.1°
Reaches altitude 10° 19:28:46 10° 184° (S) 2,372 6.2 -15.6°
Maximum altitude 19:34:05 61° 105° (ESE) 916 3.6 -16.9°
Drops below altitude 10° 19:39:30 10° 26° (NNE) 2,406 5.8 -18.2°
Enters shadow 19:39:33 10° 26° (NNE) 2,426 5.8 -18.2°
